Weather in Chernyayevo

Russia / Khabarovsk Krai     48°00′23″N   134°41′32″E
temp.,
°C
wind,
m/s
gust,
m/s
humid.,
%
clouds,
%
prec.,
mm/h
press.,
hPa
HPBL,
m
26 february, fri
fri2601:00−25ssw129521 0.0 102620
04:00−26ssw229411 0.0 102520
07:00−26ssw229534 0.0 102719
10:00−22sw239561 0.0 1027148
13:00−18sw348988 0.0 1028321
16:00−17w348986 0.0 1028356
19:00−21sw129518 0.0 103120
22:00−22sw12949 0.0 103320
27 february, sat
sat2701:00−23ssw22940 0.0 103520
04:00−23s22950 0.0 103520
07:00−24sse22960 0.0 103620
10:00−19sse12903 0.0 1035111
13:00−14se238236 0.0 1033305
16:00−9sse137968 0.0 1029433
19:00−10se348799 0.0 102658
22:00−11sse228699 0.0 102422
28 february, sun
sun2801:00−9s2685100 0.0 1021201
04:00−6ssw61490100 0.3 1019591
07:00−4sw61496100 1.4 1018705
10:00−3w61096100 3.8 1018615
13:00−6w61087100 0.1 1019564
16:00−7w71277100 0.1 1020686
19:00−11w51280100 0.0 1023459
22:00−14w41184100 0.0 1025305
1 march, mon
mon101:00−18w488788 0.0 1027147
04:00−22w349044 0.0 103029
07:00−24w34890 0.0 103147
10:00−20w510800 0.0 1033300
13:00−15wnw69670 0.0 1033836
16:00−14w58700 0.0 1032938
19:00−19wsw44780 0.0 103355
22:00−21w238615 0.0 103328
2 march, tue
tue201:00−22wsw238973 0.0 103328
04:00−24wnw129378 0.0 103320
07:00−27s01860 0.0 103420
10:00−21wsw11820 0.0 103383
13:00−17w23730 0.0 1032341
16:00−16w22730 0.0 1031320
19:00−22sw12820 0.0 103120
22:00−23ssw12760 0.0 103220